Wind_Speed
155 157 157 156 154 153 151 149 147 142 137 134 132 131 130 130 130 130 130 129 129 129 129 129 129 129 129 129 128 128 128 128 128 128 128 127 126 126 126 126 125 125 125 124 124 124 123 122 122 122 123 123 123 123 123 124 124 125 125 125 124 123 123 122 122 122 122 121 121 120 120 119 119 118 118 118 118 119 119 120 120 120 121 121 121
154 157 159 159 158 157 155 154 153 151 146 142 138 136 134 133 132 132 132 132 131 131 131 130 130 130 130 130 130 131 131 131 131 131 131 131 131 130 129 128 127 127 126 126 126 126 125 125 125 125 125 125 126 126 125 125 125 126 126 127 127 127 127 127 127 127 127 126 126 125 124 124 124 124 124 124 124 124 124 125 125 125 125 125 126
152 154 158 160 161 160 159 158 157 156 155 151 146 142 140 138 136 135 134 134 134 133 133 133 132 132 131 131 131 131 131 132 132 132 133 133 133 133 133 132 131 130 130 129 128 128 127 127 127 127 127 127 127 127 127 127 127 127 127 128 128 129 129 130 130 131 131 131 130 129 129 128 128 128 128 129 129 129 130 130 130 130 130 130 131
153 153 155 157 160 162 162 162 161 160 159 158 154 150 146 143 142 140 139 137 137 136 136 135 135 134 133 133 133 133 132 132 132 132 133 133 134 134 134 134 134 134 134 133 132 132 132 131 131 130 130 129 129 128 128 128 128 128 128 129 129 129 129 130 131 133 134 134 134 133 133 132 132 132 132 132 133 133 134 134 134 134 135 135 135
154 154 154 155 157 160 162 163 164 163 163 162 160 158 154 150 147 145 144 143 141 139 138 138 137 136 136 135 135 136 136 135 134 133 132 132 133 134 134 135 135 136 136 136 135 136 136 136 136 136 135 135 134 133 133 132 131 131 131 131 132 132 132 131 132 133 135 137 137 137 137 136 136 136 137 137 137 137 138 138 138 138 139 139 140
153 154 155 155 156 157 159 161 163 165 165 165 164 163 160 157 153 150 149 148 147 144 142 141 141 140 139 138 137 137 137 137 138 137 136 135 134 133 133 134 135 136 136 136 137 137 137 138 138 138 139 139 139 139 138 138 137 137 137 137 137 137 137 137 136 137 138 139 140 140 141 141 141 140 141 141 141 141 141 141 141 141 142 142 142
151 153 154 156 156 157 158 159 160 163 165 167 168 167 166 163 160 156 153 152 151 150 148 146 144 143 143 142 141 140 139 139 139 139 139 139 138 137 136 135 134 134 135 136 137 138 139 139 139 139 140 140 141 141 141 141 141 141 141 141 142 142 142 142 142 141 141 142 142 142 143 143 143 144 144 144 144 144 144 144 143 143 143 143 143
151 152 153 154 156 157 158 158 159 160 162 165 168 170 170 169 166 163 160 157 155 154 153 151 149 148 147 146 144 144 143 142 142 141 140 140 141 141 141 140 140 138 137 136 136 137 138 139 140 140 141 142 142 142 142 142 143 143 143 143 144 145 145 145 145 145 144 144 144 144 143 144 144 145 146 147 147 148 148 147 147 147 147 147 148
150 151 152 153 154 155 157 158 159 159 160 162 164 168 171 172 171 169 166 163 160 158 157 156 154 153 151 150 149 148 147 146 146 145 144 143 142 142 142 143 143 143 143 142 140 140 139 139 139 140 141 142 143 143 143 144 145 145 145 146 146 147 147 148 147 147 146 146 145 144 144 143 144 145 146 147 149 149 150 150 150 151 151 151 152
149 150 151 152 153 154 155 156 158 159 160 160 162 164 167 171 173 173 171 169 166 163 161 160 159 157 156 155 154 153 152 151 150 149 148 148 147 146 145 144 144 144 145 146 146 146 145 144 143 142 142 142 142 142 143 144 145 146 146 147 148 149 150 151 150 150 150 150 150 149 148 147 147 147 147 148 149 149 150 151 151 151 151 151 151
148 149 150 152 153 154 155 156 157 157 158 159 161 162 163 166 170 173 174 173 171 169 166 164 163 162 161 159 158 157 156 156 155 153 153 152 151 151 150 149 148 147 147 147 147 148 148 149 149 148 148 147 146 146 146 145 145 145 146 146 148 149 150 150 151 152 152 153 153 152 152 151 151 151 150 150 149 149 149 150 150 150 150 150 150
148 149 150 151 152 153 154 155 156 157 157 158 159 160 162 163 165 169 172 174 175 174 172 170 168 166 165 164 163 162 161 160 159 158 157 157 156 155 155 154 153 153 152 151 150 150 149 149 149 150 151 151 151 151 151 151 150 149 149 148 149 149 149 150 150 151 152 152 152 152 152 152 152 152 152 152 151 151 151 151 151 151 151 151 151
149 150 150 151 151 152 153 154 155 156 157 158 158 159 160 161 162 165 168 171 174 175 175 174 172 170 169 168 167 166 165 164 164 163 162 161 160 160 159 158 158 157 157 156 156 155 154 153 152 151 151 152 152 152 153 153 153 153 153 153 152 152 152 153 153 153 153 154 154 154 154 154 154 154 154 154 154 154 155 155 155 155 155 155 155
151 151 151 151 151 152 152 152 154 155 156 157 158 158 159 159 160 162 164 166 169 172 174 175 175 174 172 171 170 170 169 169 168 167 166 165 165 164 163 163 162 162 161 161 161 161 160 159 157 156 155 155 155 154 155 154 154 154 154 154 154 154 154 155 155 155 155 156 156 156 156 156 156 155 156 156 156 157 157 158 158 159 159 159 159
152 152 152 152 152 152 152 152 153 154 155 156 157 158 159 159 160 160 161 163 165 168 171 173 174 175 174 173 172 172 172 172 172 171 171 170 169 169 168 167 166 166 165 165 165 165 164 163 162 161 160 160 159 159 159 158 158 157 157 157 156 156 156 156 156 156 156 156 157 157 157 157 156 156 156 157 157 158 158 159 160 161 162 162 162
152 152 153 153 153 153 153 153 153 153 154 155 156 157 158 159 159 160 161 162 163 164 166 168 171 173 174 175 175 174 173 173 173 174 174 174 174 173 172 172 171 170 170 169 169 169 168 167 166 166 165 164 164 164 164 163 162 161 161 161 160 160 160 160 160 160 159 159 159 160 160 159 159 159 159 159 160 161 161 162 163 164 165 165 165
151 152 153 153 154 154 154 154 154 154 154 155 155 156 156 157 158 160 160 161 162 163 164 165 166 168 170 172 174 175 175 175 175 175 175 176 177 177 177 177 176 175 174 174 173 173 172 171 170 170 169 169 169 169 168 168 167 166 165 164 164 164 164 164 164 164 164 164 164 164 164 164 164 164 164 164 164 165 165 166 167 167 168 168 168
150 151 152 153 154 154 155 155 155 155 155 155 156 156 156 157 157 158 159 160 162 163 164 164 165 166 167 168 169 172 174 175 176 176 176 177 178 178 179 180 180 180 179 178 178 178 177 176 174 173 173 173 173 173 173 172 172 171 170 170 169 169 168 168 167 168 168 168 168 168 168 167 168 168 168 168 168 168 169 170 170 171 171 171 172
149 150 151 152 153 154 154 155 155 155 155 156 156 157 157 157 157 157 158 159 160 162 163 164 164 165 165 166 166 167 169 171 173 175 177 177 178 179 180 180 181 182 183 182 182 182 182 181 180 178 177 176 176 176 177 177 176 175 175 174 174 174 173 173 172 172 172 172 172 172 172 172 172 171 171 172 172 172 172 173 173 174 174 174 175
148 149 150 150 151 152 153 154 154 154 155 156 156 157 157 157 158 158 158 158 159 160 161 162 163 164 164 165 166 166 167 168 169 170 172 174 175 177 178 179 180 182 183 184 185 185 185 185 184 183 182 181 180 180 180 180 180 179 179 179 178 178 178 177 177 177 177 177 176 176 176 176 176 176 176 176 176 176 176 177 177 178 178 178 178
147 148 148 149 150 151 152 152 153 153 154 154 155 156 157 157 158 158 158 159 159 159 160 160 161 162 163 164 164 165 166 167 167 167 168 169 171 172 173 175 177 178 180 182 184 185 186 186 187 187 186 186 185 185 184 184 183 183 182 182 182 182 182 181 181 181 181 181 180 180 180 179 179 179 179 179 180 180 180 181 181 181 181 182 182
145 146 147 148 149 150 150 151 151 152 153 153 154 155 156 156 157 158 158 158 159 159 160 160 160 160 161 162 162 163 164 165 166 166 166 167 168 169 170 171 173 174 176 177 179 180 182 184 185 186 187 187 187 187 188 188 188 187 187 186 186 186 186 186 186 186 185 185 185 184 184 184 184 184 184 184 184 184 184 185 185 185 186 186 186
144 145 146 147 147 148 149 150 150 151 152 152 153 153 154 155 156 156 157 157 158 159 159 159 160 160 160 161 161 161 162 163 164 164 165 165 166 167 168 169 170 171 172 173 175 176 177 179 180 182 183 184 184 185 186 187 187 188 188 188 189 189 189 189 189 189 189 189 189 189 189 189 189 188 188 188 189 189 189 189 189 190 190 190 190
142 143 144 145 146 147 147 148 149 149 150 151 151 152 153 154 155 155 155 156 157 158 158 158 159 159 159 160 160 160 161 162 162 162 163 163 164 165 166 167 168 169 169 170 172 173 174 176 177 178 178 179 180 181 182 183 184 185 186 186 187 188 189 189 189 189 189 189 190 190 190 191 191 191 191 191 191 191 191 191 192 192 192 192 192
138 140 141 143 144 145 146 146 147 148 148 149 150 151 152 153 153 154 154 155 156 157 157 157 157 157 158 158 159 160 161 161 162 162 162 162 163 164 164 165 166 166 167 168 169 171 172 174 175 175 175 176 177 178 179 180 181 182 183 183 184 185 186 186 187 187 188 188 189 189 190 191 191 191 191 191 191 191 191 191 191 192 192 192 191
133 134 136 139 141 142 144 144 145 146 146 147 147 149 150 151 152 152 153 154 155 156 156 156 156 156 156 157 158 159 160 160 161 161 161 161 162 163 163 163 164 165 166 167 167 169 170 171 171 172 172 173 174 174 175 177 178 179 180 181 182 183 183 184 185 185 185 186 187 188 188 189 189 189 189 189 189 189 188 188 188 188 188 187 186
129 130 131 133 136 138 139 141 143 144 144 145 145 146 147 148 149 150 151 152 153 154 155 155 154 154 155 156 157 158 158 159 159 159 160 160 161 162 162 162 162 163 165 166 167 167 168 168 169 169 170 170 171 171 171 172 173 175 176 177 178 179 180 180 181 182 182 183 183 183 184 185 184 184 184 184 183 183 183 182 181 181 180 180 179
125 126 128 129 131 132 134 136 138 140 142 143 144 144 145 145 146 147 149 150 151 152 153 153 153 153 154 155 155 155 156 156 157 157 157 158 158 159 160 160 161 162 163 164 165 166 166 167 168 168 169 169 168 168 169 169 170 171 172 172 173 174 174 175 175 176 176 176 177 177 177 178 177 177 177 176 176 175 174 174 173 173 172 171 170
119 121 123 125 127 128 130 132 134 135 137 139 140 141 143 143 144 145 146 147 148 149 150 150 151 151 152 153 153 154 154 154 155 155 155 155 155 156 157 158 158 159 161 162 163 163 164 165 166 167 167 167 167 167 167 167 168 168 169 169 170 170 170 170 170 170 170 170 170 170 170 170 169 169 169 168 167 167 166 165 165 164 163 162 161
111 113 116 119 121 123 126 128 130 131 133 134 135 136 138 140 141 143 144 145 146 147 148 149 149 149 149 150 150 151 152 152 152 153 153 153 153 154 155 155 156 156 158 159 160 160 161 162 162 163 164 165 165 165 165 166 166 166 166 166 166 167 167 166 166 166 166 165 165 164 164 163 163 162 161 160 160 159 158 157 156 155 154 153 152
104 106 109 112 114 116 119 122 125 127 129 130 131 132 133 135 136 137 139 141 142 144 146 147 147 148 148 148 149 149 149 150 150 151 152 152 152 153 153 153 153 154 154 155 156 157 158 159 159 159 160 160 161 161 162 162 162 163 163 163 163 163 163 163 162 162 161 160 159 158 158 157 156 155 154 152 151 150 149 148 147 146 145 144 142
99 101 103 105 107 110 112 115 118 120 123 125 126 128 129 130 131 132 134 136 138 140 142 143 144 145 146 147 148 148 149 149 149 149 150 150 150 150 150 150 151 151 151 152 153 154 155 156 156 156 156 156 157 157 157 158 158 158 158 158 158 158 158 157 156 156 155 154 153 152 151 150 149 148 147 146 145 144 143 142 140 139 138 137 135
94 96 98 100 101 103 105 108 110 113 115 118 120 122 123 125 126 128 130 132 133 135 137 139 140 142 143 145 146 146 147 147 148 149 149 149 149 148 148 148 148 148 148 149 150 150 152 152 153 153 154 154 154 153 154 154 154 154 154 154 154 154 153 153 152 151 150 149 148 147 146 145 144 143 142 141 140 139 138 137 135 134 132 131 129
90 92 93 95 97 98 100 102 104 106 108 110 112 114 116 118 120 122 125 127 128 130 132 134 136 138 139 141 142 143 144 144 146 147 147 147 147 146 146 145 145 145 145 146 146 147 148 148 149 149 150 150 150 150 150 150 151 151 151 150 150 150 149 149 148 148 147 146 145 144 143 142 141 139 138 137 135 134 132 131 129 128 126 125 123
87 88 90 91 92 94 95 96 98 100 101 103 105 107 109 110 113 115 118 120 122 125 127 129 131 133 135 137 138 139 140 141 142 143 144 143 143 143 143 143 143 143 143 143 144 144 144 145 145 145 146 146 146 146 147 147 147 147 147 147 146 146 145 145 144 143 143 142 141 140 138 137 136 134 132 131 129 128 127 125 123 122 120 119 118
83 85 86 87 88 89 91 92 93 94 96 97 99 101 102 104 105 107 110 112 115 117 120 122 125 127 130 132 134 135 136 137 138 139 140 140 140 140 140 140 140 140 141 141 141 141 141 142 142 142 142 143 143 143 143 144 144 144 144 143 143 143 142 141 140 139 138 137 136 135 134 132 131 129 127 126 125 123 122 120 118 117 116 114 113
79 81 82 84 85 86 87 88 89 90 91 93 94 95 97 98 99 101 103 105 107 110 112 115 117 120 123 126 128 130 131 132 134 135 136 136 136 136 137 137 138 138 138 138 139 139 138 138 138 138 139 139 139 140 140 140 140 140 140 140 140 139 139 138 137 136 135 134 133 131 130 129 127 125 124 122 121 119 118 116 115 113 111 110 108
75 77 78 79 81 82 83 84 85 86 87 89 90 91 92 93 94 95 97 99 101 103 105 107 110 113 116 118 121 123 125 126 128 130 131 131 132 132 133 134 134 135 135 135 135 135 136 135 135 135 135 135 136 136 136 136 136 136 136 136 136 135 135 134 133 132 131 130 129 128 126 125 123 122 120 119 117 116 114 112 111 109 108 106 104
72 73 74 75 76 78 79 80 81 82 83 84 86 87 88 89 90 91 93 94 95 97 99 101 103 106 108 110 112 114 117 119 121 123 124 125 126 127 128 130 130 131 132 132 132 132 133 132 132 132 132 132 132 132 132 132 132 132 132 131 131 130 130 129 129 128 127 126 125 124 122 121 119 118 117 116 114 113 111 109 107 105 104 101 99
68 69 70 71 72 74 75 76 77 78 79 80 81 82 84 85 86 87 89 90 91 92 94 95 97 99 101 103 105 107 109 111 113 114 116 118 119 121 123 124 125 126 127 128 128 129 129 129 129 129 128 128 128 129 129 129 128 128 128 127 127 126 125 124 124 123 122 122 121 120 119 117 116 115 114 112 111 109 108 106 104 101 99 96 94
65 66 67 68 69 70 71 72 73 74 75 76 77 78 79 81 82 83 84 86 87 88 90 91 93 94 96 97 98 100 101 103 105 106 108 110 112 114 116 118 119 120 121 122 123 123 124 124 124 124 124 125 125 125 125 125 124 124 123 123 122 122 121 120 119 119 118 118 117 116 115 113 112 111 110 108 107 105 103 101 99 96 93 90 88
62 63 64 65 66 66 67 68 70 71 71 72 73 74 75 76 78 79 80 81 83 84 85 87 88 90 91 93 94 95 97 97 98 100 102 104 106 107 109 110 112 113 114 115 116 117 117 118 118 119 119 120 120 120 120 120 119 119 118 118 117 117 116 116 115 114 114 113 112 111 110 109 108 107 105 104 102 100 97 95 93 90 88 85 83
59 60 61 62 63 64 64 66 66 67 68 69 69 70 71 72 74 75 76 77 79 80 81 83 84 86 88 89 90 92 93 93 94 95 97 98 99 101 102 103 105 106 107 108 109 110 111 112 112 113 113 114 114 114 114 114 113 113 113 112 112 112 112 111 111 110 109 109 108 107 106 104 103 101 100 98 96 94 91 89 86 84 83 81 78
56 57 58 59 60 61 62 63 63 64 65 65 66 67 68 69 70 72 73 74 76 77 78 79 81 82 84 85 86 88 88 89 90 91 92 93 94 95 96 97 98 99 100 101 102 103 104 105 105 106 107 107 107 107 108 108 108 108 107 107 107 107 107 106 106 105 104 104 103 102 100 99 97 95 93 91 89 88 86 83 82 80 78 75 73
53 54 55 56 57 58 59 60 60 61 62 62 63 64 65 66 67 69 70 71 72 73 75 76 77 78 79 81 82 83 84 85 86 87 88 89 90 91 92 92 93 94 95 95 96 97 97 98 98 99 100 100 100 101 101 102 102 102 102 102 102 101 101 101 100 100 99 98 97 96 94 92 90 89 87 86 84 83 81 79 76 74 72 70 69
50 51 52 53 54 55 56 57 58 58 59 60 61 62 63 64 65 66 67 68 69 70 71 72 73 74 75 76 77 78 79 80 81 82 83 84 85 86 87 88 89 89 90 91 91 92 92 93 93 93 94 95 95 96 96 96 97 97 97 97 96 96 96 96 95 95 94 92 91 90 88 87 85 84 83 82 80 78 76 74 72 70 69 68 67
48 48 49 50 51 53 54 55 55 56 57 58 59 60 60 61 62 63 64 65 66 66 68 69 70 71 72 73 74 75 76 77 78 79 80 80 81 82 83 84 85 86 86 87 87 88 89 89 90 90 91 91 92 92 92 92 92 92 92 92 92 92 91 90 90 89 88 87 86 85 84 82 81 79 78 77 75 73 72 71 70 69 68 66 64
46 46 47 48 49 50 51 52 53 54 55 56 57 58 59 59 60 61 62 62 63 64 65 66 67 68 69 70 71 72 73 74 74 75 76 77 78 79 80 80 81 82 83 83 84 85 86 86 87 87 88 88 88 88 88 88 88 88 88 88 87 87 86 86 85 84 83 82 81 80 79 77 76 74 73 73 72 72 71 69 68 66 63 61 60
44 45 45 46 47 48 49 50 51 52 53 54 55 56 57 57 58 59 60 61 61 62 63 64 65 66 67 68 69 69 70 71 72 73 73 74 75 76 77 77 78 79 80 81 81 82 82 83 83 83 84 84 84 84 84 85 85 85 84 84 83 83 82 81 80 79 77 76 75 74 73 72 72 72 72 72 71 70 67 65 63 61 59 58 57
42 43 44 45 45 46 47 48 49 50 51 52 53 54 55 56 57 57 58 59 60 60 61 62 63 64 65 66 67 67 68 69 70 70 71 72 73 74 74 75 75 76 77 77 78 78 79 79 79 79 80 80 80 80 81 81 81 81 80 79 78 77 76 75 74 72 72 71 71 71 71 71 72 72 71 69 67 64 62 60 59 58 57 55 53
41 42 42 43 44 45 46 47 48 48 49 50 51 52 53 54 54 55 56 57 58 58 59 60 61 62 63 63 64 65 66 66 67 68 69 69 70 71 71 72 72 73 73 74 74 74 75 75 75 75 76 76 76 76 76 76 75 75 74 73 72 71 70 70 70 69 69 70 70 70 71 70 70 68 66 63 61 59 58 57 56 55 54 52 50
Wind_Direction
237 237 237 237 237 238 238 238 237 237 237 237 237 238 240 242 243 243 243 243 244 245 246 246 246 246 246 246 245 246 246 246 247 247 247 248 249 251 252 254 255 255 256 256 256 257 257 258 259 260 261 262 263 264 265 266 268 269 270 270 269 269 268 267 267 267 266 266 266 266 267 268 268 268 269 269 270 271 271 272 273 274 275 275 276
238 237 238 238 238 238 238 238 239 239 238 237 237 238 238 239 241 242 243 243 244 244 245 245 246 247 247 247 247 247 247 247 247 248 248 248 249 249 250 251 252 254 255 256 257 257 258 258 259 259 260 261 262 263 264 265 266 268 269 270 271 271 271 270 270 269 269 268 268 267 267 268 268 269 269 270 270 271 271 272 272 273 274 274 275
239 238 238 238 239 239 238 238 239 239 240 239 238 238 238 238 239 240 241 242 243 244 244 244 245 246 246 247 247 247 248 248 248 249 249 250 250 250 250 251 251 252 252 253 255 256 257 258 258 259 260 261 262 263 264 265 266 267 268 269 270 271 272 272 272 272 271 271 270 270 270 270 270 270 270 271 272 272 273 273 274 274 275 276 277
239 239 239 239 239 239 239 239 239 239 240 240 240 239 239 238 239 239 240 241 242 243 244 244 244 245 245 246 247 247 247 248 249 249 250 250 251 251 252 252 253 253 253 253 253 254 255 255 256 257 258 259 260 262 263 264 265 266 267 268 268 269 270 271 272 273 273 273 273 273 273 273 273 273 273 273 274 274 275 275 276 277 277 278 278
239 239 239 239 239 239 240 240 239 239 240 240 241 241 240 240 239 239 240 240 241 242 243 243 244 244 244 245 246 247 248 248 248 249 250 251 252 252 253 253 254 254 255 255 256 256 255 256 256 256 257 257 258 259 260 262 263 264 265 266 267 268 269 269 270 271 272 273 274 274 275 275 275 275 275 275 276 276 276 277 277 277 278 278 278
240 240 240 240 240 240 240 240 240 240 240 240 241 241 241 241 240 240 240 240 241 241 242 242 243 244 244 245 245 246 248 248 249 249 249 250 251 252 253 254 254 255 256 256 257 257 258 258 258 258 258 258 258 259 259 260 261 262 263 264 265 267 267 268 269 270 271 273 274 275 275 276 276 275 275 275 275 275 275 275 276 276 276 276 277
240 240 240 240 240 240 240 240 240 241 240 240 240 241 242 242 242 241 240 240 241 241 241 242 242 243 244 245 245 246 247 248 249 249 250 250 250 251 252 253 254 255 256 257 257 258 259 259 260 260 261 261 261 261 261 261 262 262 263 263 264 265 266 267 268 269 270 272 273 275 276 276 277 277 277 277 276 276 276 277 277 277 278 279 279
240 240 240 241 241 241 241 241 241 241 241 241 241 241 241 242 243 242 242 241 241 241 241 242 242 243 243 244 245 245 246 247 248 248 250 250 251 251 251 252 252 253 254 255 256 257 258 259 260 261 261 262 262 263 263 264 264 265 265 265 266 266 267 268 268 269 270 271 273 274 275 276 277 278 279 279 279 280 280 281 281 282 282 283 284
240 240 240 241 241 241 241 241 241 241 241 241 241 241 241 242 243 243 243 243 242 242 242 242 242 243 243 244 244 245 246 246 247 248 248 249 250 251 252 252 253 253 253 254 254 255 256 258 259 260 261 262 262 263 264 264 265 265 266 267 267 268 268 269 270 271 271 272 273 274 275 275 276 277 278 279 280 281 282 282 283 283 284 284 285
240 240 240 241 241 241 242 242 242 242 242 242 242 242 242 242 243 243 244 244 244 243 243 243 243 243 243 244 244 245 245 246 247 247 248 248 249 250 251 252 253 253 254 254 254 254 255 256 257 257 258 260 261 262 263 263 264 265 266 266 267 268 268 269 270 271 271 272 272 273 274 274 275 276 276 277 278 279 280 281 281 282 282 283 284
241 241 241 241 241 241 242 242 242 242 242 242 242 242 242 242 243 243 244 244 245 245 245 244 244 244 244 244 244 245 245 246 247 247 248 248 249 249 250 251 251 252 253 254 254 255 255 256 256 257 257 258 259 259 260 261 262 263 264 265 266 267 267 268 269 270 270 271 271 272 272 273 274 274 275 275 276 277 278 278 279 280 281 281 282
241 241 241 241 241 241 241 242 242 242 242 243 243 243 243 243 243 243 244 244 245 245 246 246 245 245 245 245 245 245 245 246 246 247 248 248 249 249 250 250 251 251 252 253 254 254 255 255 256 257 258 258 259 259 260 260 260 261 262 262 263 264 265 266 267 268 269 269 270 271 272 272 273 274 274 275 275 276 277 277 278 279 280 280 281
242 242 242 242 242 241 242 242 242 242 243 243 243 243 243 243 243 243 244 244 245 245 246 246 246 246 246 246 246 246 246 246 247 247 247 248 249 249 250 250 251 251 252 252 253 254 254 255 255 256 257 258 259 259 260 261 261 262 262 263 263 264 264 265 266 267 267 268 269 270 270 271 272 273 273 274 275 276 276 277 278 278 279 279 280
242 242 242 242 242 242 242 242 242 243 243 243 243 243 243 243 243 244 244 244 245 245 246 246 247 247 247 247 247 247 247 247 247 247 248 248 249 249 250 250 251 251 252 253 253 253 254 254 255 255 256 257 258 258 259 260 261 261 262 263 264 264 265 266 266 267 268 268 269 270 270 271 271 272 273 274 274 275 276 277 278 279 279 280 280
243 243 243 243 243 243 243 243 243 243 243 243 243 244 244 244 244 244 244 244 245 245 245 246 246 247 247 247 248 247 247 247 247 248 248 248 249 250 250 251 251 251 252 253 253 254 254 255 255 255 256 256 257 258 259 259 260 261 261 262 263 264 264 265 266 267 268 268 269 270 271 271 272 273 274 274 275 276 277 277 278 279 280 280 281
243 243 244 244 244 244 244 244 244 244 244 244 244 244 244 244 244 244 244 245 245 245 245 246 246 247 247 248 248 248 248 248 248 248 248 249 249 250 250 251 251 252 252 253 253 254 254 255 255 256 256 257 257 258 259 259 260 260 261 261 262 263 263 264 265 265 266 267 268 269 270 270 271 272 273 274 274 275 276 277 277 278 279 279 280
243 243 244 244 244 244 244 244 244 244 244 244 244 244 244 245 245 245 245 245 245 245 246 246 246 246 247 247 248 249 249 249 249 249 249 249 249 250 250 251 252 252 253 253 254 254 255 255 255 256 256 257 257 258 259 259 259 260 261 261 262 262 263 263 264 265 265 266 267 267 268 269 270 270 271 272 273 273 274 275 275 276 277 278 278
243 243 243 244 244 244 245 245 244 245 245 245 245 245 245 245 245 245 245 246 246 246 246 246 246 246 247 247 247 248 249 249 250 250 250 250 250 250 251 251 252 252 253 253 254 255 255 255 256 256 256 257 258 258 259 259 260 260 261 261 262 262 263 263 264 264 265 266 266 267 268 268 269 270 271 271 272 272 273 274 274 275 276 276 277
243 243 243 244 244 244 245 245 245 245 245 245 245 246 246 246 246 246 246 246 246 246 247 247 247 247 247 247 247 248 248 249 249 250 251 251 251 251 252 252 252 253 253 253 254 255 255 256 256 256 257 257 258 258 259 260 260 260 261 261 262 262 263 263 264 265 265 266 266 267 268 268 269 270 270 271 271 272 273 273 274 274 275 276 276
244 244 244 244 244 244 244 245 245 245 245 246 246 246 246 246 246 246 246 247 247 247 247 247 247 247 248 248 248 248 248 249 249 250 250 251 251 252 252 253 253 253 253 254 254 255 255 256 256 257 257 257 258 258 259 260 260 261 261 262 262 263 263 264 264 265 265 266 266 267 268 268 269 269 270 271 271 272 272 273 273 274 274 275 276
244 244 244 244 244 244 244 245 245 245 245 246 246 246 247 247 247 247 247 247 247 247 248 248 248 248 248 249 249 249 249 249 250 250 250 251 251 252 252 252 253 253 254 254 255 255 255 256 256 257 257 258 258 258 259 259 260 261 261 262 262 263 263 264 264 265 265 266 266 267 268 268 269 269 270 270 271 271 272 272 273 274 274 275 275
244 244 244 244 244 244 244 244 245 245 245 246 246 246 247 247 247 247 248 248 248 248 248 248 249 249 249 249 250 250 250 250 250 251 251 251 252 252 252 253 253 253 254 254 255 255 256 256 257 257 258 258 258 259 259 260 260 261 261 262 262 263 264 264 265 265 266 266 267 267 268 268 269 269 270 270 271 271 272 273 273 274 274 275 276
243 244 244 244 244 244 245 245 245 245 245 245 246 246 247 247 247 248 248 248 248 248 249 249 249 249 250 250 250 251 251 251 251 251 252 252 252 253 253 254 254 254 254 255 255 255 256 256 257 257 258 258 259 259 260 260 261 261 262 262 263 263 264 264 265 265 266 266 267 267 268 268 269 269 270 270 271 272 272 273 273 274 274 275 276
243 243 244 244 245 245 245 245 245 245 245 245 246 246 246 247 247 248 248 248 249 249 249 249 249 249 250 250 250 251 251 252 252 252 252 253 253 253 254 254 255 255 255 255 256 256 256 256 257 257 258 258 259 259 260 260 261 261 262 262 263 263 264 264 265 265 266 266 267 267 268 268 269 269 270 270 271 272 272 273 273 274 275 275 276
242 243 243 244 245 245 245 245 246 246 246 246 246 246 246 247 247 247 248 248 249 249 249 249 249 250 250 250 250 251 251 251 252 252 252 253 253 254 254 255 255 256 256 256 256 257 257 257 257 257 258 258 259 259 260 260 261 261 262 262 263 264 264 265 265 266 266 267 267 268 268 269 269 270 270 271 272 272 273 273 274 275 275 276 277
244 243 243 243 244 245 245 246 246 246 246 246 246 246 247 247 247 248 248 248 249 249 249 250 250 250 250 250 251 251 251 251 251 252 252 252 253 254 254 255 255 256 257 257 257 258 258 258 259 259 259 259 259 259 260 260 261 261 262 262 263 263 264 264 265 266 266 267 268 268 269 269 270 271 271 272 272 273 274 274 275 276 276 277 277
245 245 244 244 244 244 245 245 246 246 247 247 247 247 247 247 248 248 248 249 249 249 250 250 250 250 251 251 251 251 251 252 252 252 252 252 253 253 254 254 255 256 256 257 258 258 259 259 260 260 260 260 260 261 261 261 261 262 262 263 263 263 264 264 265 265 266 267 267 268 269 269 270 271 271 272 273 273 274 274 275 276 276 277 277
245 245 246 245 245 245 245 245 245 246 246 246 247 247 247 247 248 248 248 249 249 250 250 250 251 251 251 251 252 252 252 253 253 253 253 253 253 254 254 255 255 255 256 257 257 258 259 259 260 260 261 261 262 262 262 262 263 263 263 264 264 264 265 265 265 266 267 267 268 268 269 270 270 271 271 272 273 273 274 275 275 276 276 277 277
245 245 245 246 246 246 246 246 246 246 246 246 246 246 247 247 248 248 248 249 249 250 250 251 251 251 252 252 252 253 253 253 254 254 254 254 254 255 255 255 255 256 256 257 257 258 258 259 260 261 261 262 262 262 263 263 264 264 265 265 265 266 266 267 267 267 268 268 269 269 270 270 271 272 272 273 273 274 275 275 276 276 277 277 278
246 245 245 245 245 245 245 246 246 246 246 246 246 246 246 246 247 247 248 248 249 250 250 251 251 252 252 252 253 253 253 254 254 254 255 255 255 255 255 256 256 256 257 257 258 258 259 259 260 260 261 262 262 263 263 264 264 265 265 266 266 267 267 268 268 269 269 270 270 271 271 272 272 273 273 274 275 275 276 276 277 277 277 278 279
246 246 246 245 245 245 245 245 245 246 246 247 247 246 246 246 246 247 247 248 248 249 249 250 251 252 252 253 253 253 254 254 254 254 255 255 255 255 255 256 256 256 257 258 258 259 259 260 260 261 261 262 263 263 264 264 265 265 266 266 267 267 268 268 269 270 270 271 271 272 272 273 273 274 274 275 276 276 276 277 277 278 278 279 279
246 246 246 246 245 245 245 245 245 245 245 246 246 246 247 247 247 247 247 247 247 248 249 249 250 251 251 252 252 253 253 254 254 254 255 255 255 255 256 256 256 257 257 257 258 259 259 260 261 261 262 262 263 263 264 265 265 266 267 267 268 268 269 269 270 271 271 272 272 273 274 274 275 275 276 276 277 277 277 278 278 279 279 280 280
246 246 246 246 245 245 245 245 245 245 245 245 245 246 246 246 246 246 246 247 247 247 248 248 249 250 250 251 252 252 253 253 254 254 255 255 255 256 256 256 257 257 257 258 258 259 259 260 261 261 262 263 263 264 264 265 266 266 267 268 268 269 270 270 271 272 272 273 274 274 275 275 276 276 277 277 277 278 278 279 279 280 280 281 281
246 246 246 246 245 245 245 245 245 245 245 245 245 245 245 245 245 246 246 246 246 247 247 248 248 249 250 250 251 251 252 253 253 254 254 255 256 256 257 257 258 258 258 259 259 259 260 260 261 262 262 263 264 264 265 266 266 267 268 268 269 270 270 271 272 272 273 273 274 274 275 275 276 276 277 278 278 279 279 279 280 280 281 281 281
246 246 246 245 245 245 245 245 245 245 245 245 245 245 245 245 245 245 245 246 246 246 246 247 247 248 249 249 250 251 251 252 253 254 254 255 256 256 257 257 258 258 259 259 259 260 260 261 261 262 263 263 264 265 265 266 267 267 268 269 269 270 270 271 272 272 273 273 274 274 275 276 276 277 278 278 279 279 279 280 280 281 281 281 282
246 246 246 246 246 245 245 245 245 245 245 245 245 245 245 245 245 245 245 245 245 246 246 246 247 247 248 249 249 250 251 251 252 253 254 255 255 256 256 257 257 258 258 259 259 259 260 260 261 261 262 263 263 264 265 265 266 267 268 268 269 270 270 271 272 272 273 274 274 275 276 276 277 278 278 279 279 279 280 280 281 281 281 282 282
247 247 246 246 246 246 245 245 245 245 245 245 245 245 245 245 245 245 245 245 245 245 245 246 246 246 247 248 248 249 250 251 251 252 253 254 255 255 256 256 257 257 258 258 259 259 260 260 261 261 262 262 263 264 264 265 265 266 267 268 268 269 270 271 272 273 274 274 275 276 276 277 277 278 278 279 279 280 280 280 281 281 281 282 282
246 246 246 246 246 246 246 245 245 245 245 245 245 245 245 245 245 245 245 245 245 245 245 245 246 246 246 247 247 248 249 250 251 251 252 253 254 254 255 256 256 257 258 258 259 259 260 261 261 261 262 262 263 263 264 265 265 266 267 267 268 269 270 271 272 272 273 274 274 275 276 276 277 278 278 279 279 280 280 280 281 281 281 281 281
246 246 246 246 246 246 246 246 245 245 245 245 245 245 245 245 245 245 245 245 245 245 245 245 245 246 246 247 247 248 248 249 250 251 251 252 253 253 254 255 256 256 257 257 258 259 259 260 261 261 262 262 263 263 264 265 265 266 267 267 268 269 270 270 271 272 273 273 274 275 276 276 277 277 278 279 279 280 280 280 280 280 281 281 281
246 246 246 246 246 246 246 246 245 245 245 245 244 244 245 245 245 245 245 245 245 245 245 245 245 246 246 247 247 248 248 248 249 250 250 251 252 252 253 254 254 255 256 257 257 258 259 259 260 261 262 262 263 263 264 265 265 266 267 267 268 269 269 270 271 272 273 273 274 275 275 276 276 277 278 278 279 279 279 279 280 280 280 281 281
247 246 246 246 246 246 246 246 245 245 245 245 245 244 244 244 244 245 245 245 245 245 245 245 246 246 247 247 247 248 248 248 248 249 249 250 250 251 252 253 254 255 255 256 257 258 259 259 260 261 261 262 263 263 264 264 265 266 267 267 268 269 270 270 271 272 272 273 274 274 275 275 276 276 277 277 278 278 278 279 279 280 281 281 282
247 246 246 246 246 246 246 245 245 245 245 245 245 245 244 244 244 244 244 245 245 245 245 245 245 246 246 247 247 247 248 248 248 248 249 249 250 250 251 252 253 254 254 255 256 257 258 259 259 260 261 261 262 263 264 264 265 266 267 267 268 269 269 270 271 271 272 272 273 274 274 275 275 276 276 276 277 277 278 279 280 281 282 282 283
246 246 246 246 246 245 245 245 245 245 245 245 245 245 244 244 244 244 244 244 244 244 244 245 245 245 246 246 246 247 247 248 248 248 249 249 250 251 251 252 252 253 254 254 255 256 257 258 259 259 260 261 262 263 263 264 265 266 266 267 268 268 269 269 270 270 271 272 272 273 273 274 274 275 275 276 277 278 279 279 280 281 281 281 281
246 245 246 245 245 245 245 245 245 245 245 245 244 244 244 244 244 244 244 244 244 244 244 244 244 245 245 246 246 247 247 248 248 248 249 249 250 250 251 252 252 253 253 254 255 255 256 257 258 259 260 261 261 262 263 264 264 265 266 266 267 267 268 268 269 269 270 270 271 272 272 273 274 275 276 276 277 278 279 279 279 279 279 280 280
245 245 245 245 245 245 245 245 245 245 245 244 244 244 244 244 244 244 244 244 244 245 245 245 245 245 246 246 247 247 247 248 248 249 249 249 250 251 251 252 252 253 253 254 255 255 256 257 257 258 259 260 260 261 262 262 263 263 264 264 265 266 266 267 267 268 269 270 270 271 272 273 274 275 276 276 277 277 277 277 278 279 279 279 278
245 245 245 245 245 245 245 245 245 244 244 244 244 244 244 244 244 244 244 244 244 245 245 245 246 246 246 246 247 247 248 248 248 248 249 249 250 250 250 251 251 252 253 253 254 254 255 256 256 257 257 258 258 259 260 260 261 262 262 263 264 264 265 266 267 268 269 270 271 272 272 273 274 274 274 275 275 276 277 278 278 278 277 275 273
245 245 245 244 244 244 244 244 244 244 244 244 244 244 243 243 244 244 244 244 244 244 245 245 245 246 246 246 247 247 247 248 248 248 249 249 249 249 250 250 251 251 252 252 253 253 254 254 255 255 256 256 257 258 258 259 260 261 262 262 263 264 265 266 266 267 268 269 270 271 271 272 272 273 273 274 275 276 276 276 274 273 272 272 273
245 244 244 244 244 244 244 244 244 244 243 243 243 243 243 243 243 243 243 243 243 243 244 244 245 245 245 246 246 246 247 247 248 248 248 249 249 249 250 250 250 251 251 252 252 253 253 253 254 255 255 256 257 257 258 259 260 260 261 262 263 264 264 265 266 266 267 268 269 270 271 272 273 273 274 274 273 272 271 271 271 271 272 273 274
246 245 244 243 243 243 244 244 244 244 243 243 243 243 243 243 243 243 243 243 243 243 243 244 244 244 245 245 245 246 246 246 247 247 248 248 249 249 249 249 250 250 251 251 252 252 253 253 254 254 255 256 256 257 258 259 259 260 261 262 262 263 264 265 266 267 268 269 270 271 272 272 271 270 269 268 268 268 269 270 272 273 273 273 272
247 246 245 244 243 243 243 243 243 244 244 244 244 244 244 244 244 244 244 244 244 244 244 244 245 245 245 245 246 246 246 246 247 247 247 248 248 249 249 249 250 250 251 251 252 253 253 254 255 255 256 256 257 257 258 259 259 260 261 262 263 264 265 267 267 268 269 269 269 269 268 267 266 265 265 267 268 270 272 272 272 271 270 270 270
248 248 247 246 245 244 243 243 243 243 243 244 244 244 244 244 244 245 245 245 245 245 245 245 246 246 246 246 247 247 247 248 248 248 249 249 249 250 250 251 251 251 252 252 253 253 254 255 255 256 256 257 258 258 259 260 261 262 263 264 265 265 266 266 266 266 265 265 264 263 263 264 265 266 268 269 270 271 271 270 269 269 268 268 268
Height
10431 10436 10441 10446 10452 10457 10462 10468 10474 10479 10486 10491 10496 10500 10504 10508 10511 10515 10519 10524 10528 10532 10536 10540 10544 10547 10551 10554 10557 10559 10561 10563 10564 10566 10568 10570 10572 10573 10575 10577 10580 10583 10587 10589 10590 10591 10594 10595 10593 10592 10591 10591 10591 10590 10590 10589 10587 10586 10586 10589 10593 10596 10600 10602 10604 10605 10606 10606 10607 10607 10608 10608 10609 10610 10611 10610 10608 10607 10606 10606 10605 10605 10604 10603 10601
10415 10420 10425 10430 10435 10441 10447 10452 10457 10462 10469 10475 10480 10485 10489 10494 10497 10501 10505 10509 10513 10518 10522 10526 10530 10533 10537 10540 10543 10545 10548 10550 10552 10553 10554 10557 10559 10562 10564 10566 10568 10570 10573 10575 10578 10579 10581 10582 10582 10581 10580 10580 10580 10580 10581 10581 10580 10579 10577 10576 10577 10580 10583 10585 10588 10589 10590 10591 10592 10594 10595 10595 10596 10596 10597 10596 10595 10594 10593 10593 10593 10592 10592 10591 10589
10398 10403 10409 10413 10419 10424 10430 10435 10441 10445 10450 10457 10463 10469 10474 10479 10483 10487 10490 10494 10498 10503 10507 10511 10515 10519 10523 10526 10528 10530 10533 10536 10538 10540 10542 10544 10546 10549 10552 10554 10556 10559 10561 10563 10565 10567 10568 10569 10569 10569 10569 10569 10569 10569 10570 10571 10572 10571 10569 10567 10567 10566 10567 10568 10570 10571 10573 10575 10577 10579 10580 10581 10582 10583 10583 10582 10581 10580 10579 10579 10579 10579 10578 10578 10576
10380 10386 10392 10397 10403 10408 10412 10418 10424 10429 10434 10439 10445 10452 10458 10463 10468 10472 10476 10480 10484 10488 10492 10496 10500 10504 10508 10511 10514 10516 10519 10522 10524 10526 10528 10530 10533 10535 10538 10541 10543 10545 10547 10550 10553 10555 10556 10557 10557 10558 10558 10558 10558 10558 10559 10560 10561 10561 10560 10558 10558 10557 10556 10555 10554 10553 10555 10558 10561 10564 10566 10567 10567 10568 10568 10568 10568 10567 10565 10564 10564 10564 10563 10563 10561
10361 10368 10374 10380 10386 10390 10395 10401 10407 10412 10417 10422 10427 10434 10440 10446 10452 10457 10461 10465 10469 10473 10477 10481 10485 10489 10493 10496 10499 10502 10504 10508 10511 10513 10515 10516 10519 10521 10524 10527 10529 10531 10533 10536 10538 10540 10542 10543 10544 10546 10546 10547 10548 10548 10549 10549 10550 10550 10549 10548 10547 10546 10545 10545 10543 10541 10540 10541 10543 10547 10550 10552 10553 10553 10553 10553 10553 10553 10552 10551 10551 10550 10549 10548 10547
10343 10349 10355 10362 10368 10373 10378 10383 10389 10395 10400 10405 10410 10416 10422 10428 10435 10440 10445 10449 10453 10457 10462 10466 10470 10475 10478 10482 10485 10488 10490 10494 10496 10499 10501 10504 10506 10508 10510 10512 10514 10516 10518 10521 10523 10524 10525 10527 10529 10530 10532 10533 10535 10536 10537 10538 10539 10539 10538 10537 10536 10535 10534 10533 10532 10531 10529 10528 10528 10530 10532 10534 10536 10537 10537 10537 10537 10537 10538 10538 10537 10537 10535 10534 10533
10325 10330 10337 10343 10348 10354 10360 10366 10371 10377 10382 10388 10393 10398 10404 10410 10417 10423 10429 10433 10437 10442 10446 10450 10455 10459 10464 10467 10471 10474 10476 10479 10482 10484 10487 10489 10492 10495 10497 10499 10500 10502 10504 10507 10509 10509 10509 10511 10513 10515 10516 10517 10519 10521 10523 10524 10525 10525 10525 10525 10523 10522 10521 10521 10520 10520 10520 10519 10518 10517 10517 10517 10518 10518 10518 10518 10518 10518 10520 10522 10521 10520 10519 10517 10516
10307 10313 10319 10324 10330 10335 10341 10348 10354 10359 10365 10370 10376 10382 10387 10393 10399 10405 10411 10417 10422 10426 10430 10434 10439 10443 10448 10452 10456 10459 10462 10464 10467 10470 10472 10474 10477 10480 10483 10485 10487 10489 10491 10493 10495 10495 10495 10497 10499 10500 10500 10501 10502 10505 10507 10508 10509 10509 10510 10509 10508 10507 10507 10506 10507 10508 10508 10508 10507 10506 10506 10504 10503 10501 10499 10498 10498 10498 10500 10502 10502 10500 10499 10497 10496
10289 10295 10301 10307 10312 10317 10323 10329 10336 10342 10348 10353 10359 10365 10370 10376 10382 10387 10393 10399 10405 10409 10414 10418 10422 10427 10431 10436 10440 10443 10446 10449 10452 10455 10457 10460 10462 10465 10467 10469 10472 10474 10476 10479 10481 10481 10481 10483 10485 10486 10486 10487 10488 10491 10492 10492 10492 10493 10494 10493 10492 10491 10491 10491 10492 10493 10494 10494 10494 10494 10494 10493 10490 10488 10485 10482 10481 10480 10481 10482 10483 10483 10482 10479 10476
10270 10277 10283 10289 10294 10299 10305 10311 10317 10323 10330 10336 10342 10348 10354 10359 10364 10369 10374 10380 10386 10392 10397 10402 10406 10410 10414 10419 10423 10427 10430 10433 10436 10439 10442 10444 10447 10449 10451 10453 10456 10458 10460 10462 10464 10466 10468 10470 10472 10472 10473 10474 10476 10477 10477 10477 10478 10479 10479 10479 10477 10476 10476 10477 10478 10479 10479 10479 10480 10481 10482 10481 10479 10477 10474 10471 10469 10467 10465 10465 10465 10466 10467 10466 10463
10252 10258 10264 10270 10276 10281 10287 10292 10298 10304 10310 10317 10323 10329 10336 10342 10347 10351 10356 10361 10367 10373 10379 10384 10389 10393 10397 10402 10406 10410 10413 10416 10419 10422 10426 10428 10430 10433 10435 10438 10440 10442 10443 10445 10447 10449 10452 10455 10457 10458 10459 10460 10462 10463 10462 10463 10464 10465 10465 10465 10464 10463 10464 10464 10465 10465 10465 10465 10465 10466 10467 10467 10466 10465 10463 10461 10460 10457 10454 10451 10450 10450 10451 10452 10452
10234 10239 10245 10251 10257 10262 10268 10274 10279 10284 10291 10298 10304 10310 10317 10323 10328 10333 10337 10342 10348 10354 10359 10365 10370 10375 10380 10384 10388 10393 10396 10399 10402 10405 10408 10411 10414 10416 10418 10421 10424 10425 10426 10429 10430 10432 10434 10438 10441 10443 10443 10444 10447 10448 10447 10448 10450 10451 10452 10452 10451 10451 10451 10451 10451 10451 10451 10450 10451 10451 10451 10451 10450 10450 10448 10447 10446 10444 10442 10440 10438 10437 10437 10437 10438
10214 10220 10225 10231 10237 10244 10250 10256 10260 10265 10271 10278 10285 10291 10297 10304 10309 10314 10318 10323 10329 10334 10340 10345 10351 10357 10362 10366 10370 10374 10378 10381 10384 10387 10390 10393 10396 10399 10402 10404 10406 10407 10409 10412 10413 10415 10417 10421 10424 10427 10428 10428 10430 10431 10432 10433 10434 10435 10437 10438 10439 10439 10438 10437 10436 10436 10436 10436 10437 10436 10436 10436 10436 10436 10435 10434 10433 10431 10429 10427 10426 10425 10425 10425 10426
10195 10201 10207 10212 10218 10225 10231 10238 10243 10247 10252 10259 10265 10271 10277 10284 10290 10294 10299 10304 10309 10314 10320 10325 10331 10337 10342 10347 10351 10355 10359 10362 10366 10369 10373 10376 10378 10380 10383 10386 10388 10390 10391 10393 10395 10397 10400 10403 10407 10411 10413 10414 10414 10414 10415 10417 10419 10420 10421 10423 10424 10425 10424 10423 10421 10421 10421 10421 10421 10420 10420 10421 10422 10422 10421 10421 10420 10418 10416 10414 10412 10411 10411 10411 10412
10177 10183 10188 10194 10200 10206 10213 10219 10225 10229 10234 10239 10246 10251 10257 10264 10270 10275 10279 10284 10289 10294 10299 10306 10311 10317 10322 10327 10331 10335 10339 10343 10347 10351 10354 10357 10360 10361 10363 10367 10370 10372 10374 10375 10377 10380 10382 10386 10390 10393 10397 10398 10397 10397 10398 10401 10403 10405 10406 10407 10409 10409 10409 10407 10407 10407 10407 10406 10405 10404 10404 10404 10406 10406 10406 10405 10404 10403 10401 10399 10397 10395 10394 10394 10395
10158 10164 10170 10175 10181 10187 10194 10201 10206 10211 10216 10221 10227 10232 10238 10244 10250 10255 10259 10265 10269 10274 10279 10285 10291 10297 10302 10307 10311 10316 10319 10323 10327 10332 10335 10338 10341 10343 10345 10348 10351 10354 10356 10358 10360 10362 10365 10368 10372 10376 10379 10380 10380 10381 10382 10384 10386 10388 10390 10391 10392 10392 10392 10392 10392 10393 10392 10392 10391 10390 10390 10390 10391 10391 10391 10391 10390 10388 10387 10385 10383 10381 10379 10378 10379
10139 10145 10150 10155 10161 10167 10173 10181 10188 10193 10197 10202 10207 10213 10219 10225 10230 10234 10239 10245 10250 10254 10259 10265 10271 10276 10282 10287 10291 10296 10299 10303 10307 10311 10315 10318 10321 10324 10328 10330 10332 10335 10338 10341 10342 10343 10346 10350 10355 10359 10361 10361 10362 10363 10365 10366 10368 10370 10373 10374 10374 10374 10374 10376 10377 10377 10376 10376 10376 10376 10376 10376 10377 10377 10377 10377 10376 10375 10373 10371 10369 10367 10365 10363 10363
10119 10125 10130 10135 10141 10146 10152 10160 10168 10174 10178 10183 10188 10193 10199 10205 10210 10214 10220 10225 10230 10233 10239 10245 10251 10256 10262 10268 10272 10276 10279 10283 10287 10290 10294 10299 10303 10306 10309 10312 10314 10316 10319 10323 10325 10324 10325 10330 10336 10342 10345 10344 10344 10344 10345 10347 10349 10352 10355 10356 10356 10356 10357 10359 10360 10360 10360 10359 10359 10359 10360 10360 10361 10362 10362 10362 10361 10360 10359 10356 10354 10352 10351 10349 10347
10099 10104 10110 10116 10121 10126 10132 10139 10147 10154 10159 10163 10168 10173 10179 10185 10190 10195 10201 10206 10210 10213 10219 10225 10232 10237 10241 10247 10253 10257 10260 10263 10267 10271 10274 10279 10284 10287 10290 10293 10296 10297 10299 10302 10306 10307 10307 10309 10314 10321 10326 10327 10327 10326 10327 10327 10329 10333 10336 10337 10337 10337 10339 10342 10342 10342 10342 10343 10342 10343 10344 10344 10345 10345 10345 10345 10345 10343 10342 10340 10339 10337 10335 10334 10333
10077 10082 10090 10096 10101 10107 10113 10119 10126 10133 10139 10144 10148 10154 10159 10165 10170 10175 10181 10187 10191 10195 10199 10205 10211 10217 10221 10226 10232 10236 10240 10244 10248 10252 10255 10260 10264 10268 10271 10273 10275 10277 10279 10281 10284 10287 10290 10292 10295 10299 10303 10306 10308 10309 10309 10309 10310 10313 10316 10317 10317 10318 10321 10323 10324 10323 10324 10324 10325 10326 10327 10327 10328 10328 10327 10327 10326 10325 10324 10323 10321 10320 10319 10318 10317
10055 10062 10069 10076 10081 10087 10093 10099 10106 10113 10119 10125 10129 10134 10139 10144 10149 10155 10161 10168 10172 10176 10181 10186 10192 10197 10202 10207 10212 10216 10220 10224 10229 10234 10238 10241 10245 10248 10251 10253 10255 10257 10259 10262 10264 10267 10270 10274 10276 10278 10281 10285 10288 10290 10290 10291 10292 10295 10296 10297 10298 10299 10302 10303 10303 10303 10304 10305 10307 10308 10309 10309 10309 10309 10309 10308 10307 10306 10305 10304 10303 10302 10301 10300 10299
10036 10043 10048 10054 10061 10067 10073 10079 10086 10093 10099 10105 10110 10115 10119 10123 10129 10135 10141 10147 10152 10157 10162 10169 10173 10177 10182 10187 10192 10196 10201 10205 10209 10215 10220 10223 10225 10227 10230 10233 10236 10238 10240 10242 10246 10249 10251 10253 10255 10256 10260 10265 10268 10269 10269 10271 10274 10276 10277 10279 10280 10280 10282 10282 10282 10283 10285 10286 10288 10289 10289 10290 10290 10290 10289 10289 10288 10287 10286 10285 10285 10284 10283 10282 10281
10019 10024 10028 10034 10041 10047 10053 10059 10066 10073 10079 10084 10090 10097 10100 10102 10108 10116 10121 10126 10132 10137 10143 10150 10155 10159 10163 10168 10172 10177 10182 10185 10190 10196 10201 10204 10205 10207 10210 10213 10216 10219 10222 10224 10227 10229 10231 10233 10233 10235 10239 10244 10248 10250 10251 10252 10254 10256 10257 10259 10260 10260 10261 10261 10262 10263 10265 10267 10268 10268 10268 10269 10269 10269 10269 10269 10268 10268 10267 10266 10266 10266 10265 10264 10263
10001 10006 10010 10015 10021 10028 10033 10040 10046 10053 10059 10065 10071 10078 10081 10083 10088 10096 10102 10106 10111 10115 10121 10128 10134 10139 10145 10149 10153 10159 10163 10166 10170 10176 10181 10185 10187 10189 10191 10193 10196 10199 10203 10205 10207 10208 10210 10211 10212 10215 10219 10224 10228 10231 10232 10233 10234 10236 10237 10239 10239 10239 10239 10240 10242 10243 10245 10246 10246 10246 10247 10247 10247 10248 10249 10249 10249 10249 10248 10247 10246 10246 10246 10245 10244
9983 9989 9994 9998 10003 10009 10015 10021 10027 10033 10040 10047 10052 10058 10062 10064 10069 10077 10083 10086 10090 10094 10100 10106 10113 10119 10125 10129 10133 10138 10142 10145 10150 10155 10160 10165 10167 10168 10171 10175 10177 10180 10183 10185 10187 10187 10187 10187 10191 10197 10203 10206 10208 10210 10211 10212 10214 10216 10218 10219 10219 10219 10219 10220 10221 10223 10224 10224 10225 10225 10225 10226 10226 10227 10229 10230 10230 10230 10229 10228 10227 10226 10226 10225 10224
9965 9972 9978 9982 9986 9992 9997 10002 10008 10014 10021 10028 10034 10039 10042 10046 10052 10058 10063 10067 10071 10074 10078 10085 10092 10100 10105 10108 10111 10116 10120 10124 10129 10134 10139 10144 10146 10147 10151 10157 10160 10162 10162 10164 10165 10166 10166 10169 10173 10179 10183 10185 10187 10190 10191 10193 10194 10195 10196 10198 10199 10199 10199 10200 10202 10203 10203 10204 10204 10205 10205 10206 10207 10208 10209 10210 10210 10210 10210 10209 10209 10207 10207 10206 10204
9948 9954 9960 9965 9970 9975 9981 9985 9990 9995 10001 10008 10015 10020 10024 10029 10035 10040 10044 10048 10052 10055 10059 10065 10073 10080 10084 10086 10089 10093 10098 10103 10108 10113 10118 10123 10126 10128 10132 10138 10143 10144 10143 10143 10144 10147 10150 10153 10156 10158 10159 10162 10166 10169 10171 10172 10173 10174 10175 10177 10178 10179 10180 10181 10183 10183 10184 10184 10185 10186 10187 10188 10188 10189 10190 10191 10191 10191 10191 10191 10190 10189 10188 10187 10186
9933 9938 9943 9948 9953 9958 9964 9969 9972 9977 9983 9989 9995 10001 10006 10013 10018 10022 10025 10029 10032 10037 10042 10047 10053 10059 10062 10065 10069 10074 10079 10084 10089 10093 10098 10102 10106 10111 10115 10119 10123 10125 10124 10125 10127 10130 10132 10133 10134 10136 10138 10141 10145 10149 10150 10152 10153 10154 10155 10156 10157 10158 10160 10162 10163 10164 10165 10166 10167 10168 10169 10169 10170 10171 10172 10172 10173 10173 10173 10173 10171 10170 10170 10169 10168
9917 9921 9926 9931 9936 9941 9946 9950 9954 9959 9964 9970 9977 9983 9988 9994 9999 10003 10007 10011 10015 10020 10025 10029 10033 10039 10043 10047 10052 10056 10061 10066 10070 10073 10077 10082 10088 10093 10097 10100 10103 10105 10105 10107 10109 10112 10114 10115 10116 10117 10119 10121 10124 10127 10130 10132 10133 10134 10135 10136 10137 10138 10139 10141 10143 10145 10146 10147 10148 10149 10150 10151 10152 10153 10153 10154 10154 10155 10154 10154 10153 10152 10151 10150 10148
9899 9905 9909 9913 9918 9924 9928 9931 9935 9940 9945 9951 9958 9964 9969 9975 9980 9984 9990 9995 9999 10003 10006 10009 10014 10019 10024 10029 10034 10037 10042 10047 10051 10054 10058 10064 10069 10073 10076 10079 10083 10085 10087 10089 10090 10092 10094 10097 10099 10100 10101 10102 10104 10106 10109 10111 10113 10115 10116 10118 10119 10119 10121 10122 10123 10125 10126 10128 10129 10130 10132 10133 10133 10134 10134 10135 10135 10135 10135 10134 10133 10132 10132 10131 10129
9882 9887 9891 9895 9900 9906 9909 9913 9917 9922 9927 9932 9939 9945 9950 9956 9962 9968 9974 9978 9982 9985 9988 9992 9997 10002 10006 10010 10014 10018 10022 10027 10031 10034 10038 10042 10047 10051 10055 10059 10063 10067 10070 10072 10072 10072 10074 10076 10079 10082 10084 10086 10087 10089 10090 10092 10093 10095 10096 10098 10100 10101 10102 10103 10104 10106 10107 10109 10110 10111 10113 10113 10114 10114 10115 10115 10115 10116 10115 10114 10114 10113 10112 10112 10111
9865 9870 9874 9877 9882 9887 9891 9895 9900 9905 9910 9915 9920 9926 9932 9939 9945 9951 9956 9959 9963 9968 9972 9975 9979 9983 9987 9990 9993 9997 10002 10007 10011 10014 10017 10021 10026 10031 10036 10041 10044 10047 10051 10054 10055 10055 10056 10057 10060 10063 10066 10069 10071 10072 10073 10074 10075 10076 10077 10079 10080 10082 10083 10084 10086 10088 10089 10090 10092 10093 10094 10094 10095 10095 10095 10095 10095 10095 10095 10095 10095 10095 10094 10094 10093
9850 9854 9857 9861 9865 9870 9874 9878 9883 9888 9893 9898 9904 9909 9915 9921 9927 9933 9937 9941 9946 9951 9954 9957 9961 9965 9968 9971 9975 9979 9984 9988 9992 9994 9997 10001 10006 10012 10017 10021 10025 10028 10032 10035 10038 10039 10040 10042 10043 10046 10048 10050 10052 10055 10056 10057 10059 10060 10061 10062 10063 10064 10065 10067 10068 10070 10071 10072 10074 10074 10074 10075 10075 10075 10075 10076 10076 10076 10076 10076 10076 10077 10076 10076 10076
9835 9839 9842 9845 9850 9854 9859 9863 9867 9872 9877 9882 9888 9893 9899 9904 9910 9914 9918 9923 9928 9933 9937 9940 9944 9947 9951 9954 9958 9962 9966 9970 9973 9974 9978 9983 9989 9994 9998 10003 10007 10011 10014 10017 10020 10023 10024 10026 10028 10030 10032 10033 10035 10038 10039 10040 10042 10043 10044 10045 10047 10048 10049 10050 10051 10052 10053 10054 10055 10055 10056 10056 10056 10057 10057 10058 10058 10058 10058 10058 10059 10059 10059 10058 10058
9821 9824 9827 9831 9835 9840 9844 9848 9853 9858 9862 9867 9872 9877 9882 9888 9893 9897 9901 9906 9911 9916 9920 9924 9927 9931 9934 9937 9941 9945 9949 9953 9955 9957 9961 9967 9973 9978 9982 9985 9989 9993 9996 9999 10002 10004 10007 10009 10011 10014 10016 10018 10020 10022 10023 10024 10025 10026 10027 10028 10030 10031 10032 10033 10034 10035 10036 10036 10037 10038 10038 10038 10038 10039 10040 10040 10041 10041 10041 10041 10042 10042 10042 10041 10040
9807 9810 9814 9817 9822 9826 9830 9835 9839 9844 9848 9852 9857 9861 9867 9872 9877 9882 9886 9890 9894 9899 9903 9908 9912 9915 9918 9921 9924 9928 9932 9936 9939 9942 9946 9951 9956 9961 9964 9967 9971 9974 9977 9980 9983 9986 9989 9992 9995 9997 9999 10001 10003 10005 10006 10008 10008 10009 10010 10011 10012 10013 10014 10015 10016 10017 10019 10019 10020 10020 10021 10021 10021 10022 10023 10023 10024 10024 10024 10024 10025 10025 10025 10025 10024
9794 9798 9801 9805 9809 9813 9817 9822 9826 9830 9834 9838 9843 9847 9851 9857 9862 9866 9870 9874 9879 9883 9887 9892 9896 9899 9901 9904 9908 9912 9916 9921 9924 9927 9931 9935 9940 9944 9947 9950 9953 9956 9958 9961 9964 9968 9971 9974 9977 9980 9983 9985 9986 9988 9989 9991 9992 9993 9995 9996 9996 9997 9998 9999 10001 10002 10002 10003 10004 10004 10004 10005 10005 10006 10006 10006 10007 10007 10008 10008 10008 10008 10008 10008 10008
9782 9785 9789 9792 9796 9801 9805 9809 9813 9817 9821 9825 9829 9833 9837 9842 9847 9851 9855 9859 9864 9868 9872 9876 9880 9882 9885 9889 9893 9897 9902 9906 9909 9912 9915 9920 9924 9928 9931 9933 9936 9939 9942 9945 9948 9951 9954 9957 9960 9963 9966 9968 9970 9971 9973 9974 9976 9977 9979 9980 9981 9983 9984 9985 9986 9987 9987 9988 9988 9989 9989 9989 9990 9990 9990 9991 9991 9991 9992 9993 9993 9992 9992 9992 9992
9771 9774 9777 9781 9785 9788 9792 9797 9800 9804 9808 9812 9816 9820 9824 9829 9833 9837 9841 9845 9849 9854 9858 9861 9865 9868 9871 9874 9878 9883 9888 9891 9894 9897 9901 9905 9909 9912 9915 9917 9920 9923 9926 9929 9932 9935 9937 9940 9943 9946 9949 9951 9954 9955 9957 9958 9960 9961 9963 9964 9966 9968 9969 9970 9971 9972 9972 9972 9973 9973 9974 9974 9975 9976 9975 9975 9976 9976 9976 9977 9977 9977 9977 9978 9978
9761 9764 9767 9770 9774 9777 9781 9785 9788 9792 9795 9800 9804 9808 9812 9816 9820 9824 9828 9832 9836 9840 9844 9847 9851 9854 9857 9860 9864 9869 9873 9877 9880 9883 9887 9890 9893 9896 9899 9901 9904 9907 9910 9913 9916 9918 9922 9925 9927 9930 9933 9935 9937 9939 9941 9942 9944 9946 9948 9949 9951 9952 9954 9955 9956 9957 9957 9958 9958 9959 9959 9960 9960 9961 9961 9961 9961 9961 9961 9962 9962 9963 9964 9965 9966
9751 9754 9757 9760 9763 9766 9770 9773 9777 9780 9784 9788 9792 9796 9800 9804 9807 9811 9815 9819 9823 9827 9830 9834 9837 9841 9844 9847 9851 9855 9858 9862 9866 9869 9872 9875 9878 9881 9883 9886 9889 9892 9895 9897 9900 9903 9906 9909 9912 9915 9917 9919 9921 9923 9925 9927 9929 9931 9933 9934 9936 9937 9939 9940 9941 9942 9943 9943 9943 9944 9944 9945 9945 9946 9947 9947 9947 9947 9947 9948 9949 9950 9952 9953 9955
9742 9745 9748 9750 9753 9756 9759 9763 9766 9770 9773 9777 9781 9785 9788 9792 9795 9799 9803 9806 9810 9814 9818 9821 9825 9828 9831 9834 9837 9840 9844 9848 9852 9855 9858 9860 9863 9866 9870 9872 9875 9878 9881 9883 9886 9889 9892 9894 9897 9899 9902 9904 9906 9907 9909 9911 9914 9916 9918 9920 9922 9923 9924 9925 9926 9927 9928 9928 9929 9929 9930 9931 9931 9932 9932 9933 9933 9934 9935 9936 9937 9939 9940 9941 9942
9734 9736 9739 9741 9744 9747 9750 9753 9756 9760 9763 9766 9770 9773 9777 9780 9784 9787 9790 9794 9798 9801 9805 9808 9812 9814 9817 9820 9823 9827 9830 9834 9838 9841 9844 9847 9850 9853 9856 9859 9862 9865 9867 9870 9873 9875 9878 9880 9883 9885 9887 9889 9891 9894 9896 9898 9900 9902 9904 9906 9908 9909 9910 9910 9911 9912 9913 9914 9915 9915 9916 9917 9918 9918 9919 9920 9920 9921 9923 9925 9926 9927 9928 9928 9929
9725 9728 9730 9732 9735 9737 9740 9743 9746 9750 9753 9757 9760 9763 9766 9769 9772 9776 9779 9782 9785 9789 9792 9796 9799 9802 9805 9808 9811 9814 9818 9822 9825 9828 9831 9834 9837 9840 9843 9846 9849 9852 9855 9857 9860 9863 9865 9868 9870 9872 9874 9877 9879 9881 9883 9885 9887 9889 9890 9892 9893 9894 9895 9896 9897 9898 9899 9900 9901 9902 9903 9904 9905 9906 9907 9908 9909 9910 9911 9913 9914 9915 9915 9916 9917
9717 9720 9722 9724 9726 9729 9731 9734 9737 9741 9744 9747 9750 9752 9755 9758 9762 9765 9768 9771 9774 9777 9781 9784 9787 9791 9794 9797 9800 9803 9806 9810 9813 9816 9819 9822 9825 9828 9831 9834 9836 9839 9842 9845 9847 9850 9853 9855 9858 9860 9862 9865 9866 9868 9870 9871 9873 9874 9876 9877 9879 9880 9881 9883 9883 9884 9886 9887 9888 9889 9891 9892 9893 9894 9895 9896 9897 9898 9899 9900 9902 9903 9904 9905 9905
9710 9712 9714 9717 9719 9721 9723 9726 9729 9732 9735 9737 9740 9743 9746 9748 9751 9755 9758 9761 9764 9767 9770 9773 9777 9780 9783 9786 9789 9792 9795 9798 9801 9804 9807 9810 9813 9816 9819 9821 9824 9827 9829 9832 9835 9837 9840 9842 9845 9847 9849 9851 9852 9854 9856 9857 9859 9860 9862 9863 9865 9867 9868 9870 9871 9872 9873 9875 9876 9878 9879 9880 9881 9883 9883 9883 9885 9886 9888 9889 9891 9892 9891 9892 9892
9702 9705 9707 9709 9711 9713 9715 9718 9720 9723 9726 9728 9731 9733 9736 9739 9742 9745 9748 9751 9754 9757 9760 9763 9766 9769 9772 9775 9778 9780 9783 9786 9789 9792 9795 9798 9801 9804 9806 9809 9812 9815 9817 9820 9822 9824 9827 9829 9831 9833 9835 9837 9839 9840 9842 9844 9846 9847 9849 9851 9853 9854 9856 9858 9859 9861 9862 9864 9865 9866 9867 9868 9869 9870 9872 9873 9874 9876 9877 9877 9878 9879 9879 9881 9883
9695 9697 9699 9701 9703 9705 9707 9709 9712 9715 9717 9719 9722 9724 9727 9730 9732 9735 9738 9741 9744 9747 9750 9752 9755 9758 9761 9764 9767 9770 9772 9775 9778 9781 9784 9786 9789 9792 9795 9797 9800 9802 9805 9807 9809 9811 9814 9816 9818 9820 9822 9824 9826 9828 9830 9832 9833 9835 9837 9838 9840 9842 9844 9846 9848 9849 9851 9852 9853 9854 9856 9857 9858 9859 9860 9861 9862 9863 9864 9865 9867 9869 9871 9872 9874
9688 9690 9692 9694 9696 9698 9700 9702 9704 9706 9709 9711 9713 9716 9718 9721 9723 9726 9728 9731 9734 9737 9740 9742 9745 9748 9750 9753 9756 9759 9761 9764 9767 9769 9772 9775 9777 9780 9783 9785 9788 9790 9792 9794 9797 9799 9801 9803 9806 9808 9810 9812 9815 9816 9818 9820 9821 9823 9825 9827 9829 9831 9833 9835 9837 9838 9840 9841 9843 9844 9845 9846 9846 9846 9846 9847 9849 9851 9854 9857 9859 9861 9862 9863 9864
9681 9683 9685 9687 9689 9691 9693 9694 9696 9698 9701 9703 9705 9707 9710 9712 9715 9717 9720 9722 9725 9727 9730 9733 9735 9738 9740 9743 9746 9748 9751 9753 9756 9758 9761 9763 9766 9768 9771 9773 9776 9778 9781 9783 9785 9788 9790 9792 9795 9797 9799 9801 9803 9805 9807 9808 9810 9812 9814 9816 9818 9821 9823 9824 9826 9828 9829 9830 9831 9832 9832 9831 9831 9832 9834 9837 9840 9844 9846 9848 9850 9851 9851 9853 9855
9675 9676 9678 9680 9682 9684 9686 9687 9689 9691 9693 9695 9697 9700 9702 9704 9706 9709 9711 9714 9716 9719 9721 9724 9726 9729 9731 9734 9736 9739 9741 9744 9746 9748 9751 9753 9756 9758 9760 9763 9765 9768 9770 9772 9775 9777 9779 9781 9784 9786 9788 9790 9792 9794 9796 9798 9800 9802 9804 9806 9808 9810 9812 9813 9814 9815 9816 9817 9817 9817 9818 9819 9821 9824 9827 9830 9833 9836 9837 9838 9839 9840 9842 9844 9846